Weather History for KBIX - February, 2013

Change the Weather History Date:

Monday, February 18, 2013

  Actual Average Record
Temperature  
Mean Temperature 58 °F -  
Max Temperature 64 °F 63 °F 104 °F (1998)
Min Temperature 53 °F 46 °F 24 °F (1958)
Degree Days  
Heating Degree Days 6    
Growing Degree Days 8 (Base 50)    
Moisture  
Dew Point 50 °F    
Average Humidity 71    
Maximum Humidity 86    
Minimum Humidity 56    
Precipitation  
Precipitation 0.00 in - - ()
Sea Level Pressure  
Sea Level Pressure 30.15 in    
Wind  
Wind Speed 12 mph (SSE)    
Max Wind Speed 17 mph    
Max Gust Speed 25 mph    
Visibility 10 miles    
Events Rain    
Averages and records for this station are not official NWS values.
T = Trace of Precipitation, MM = Missing Value Source: NWS Daily Summary

Daily Weather History Graph

Daily Weather History Graph

Search for Another Location

Airport or City:

Trip Planner

Search our weather history database for the weather conditions in past years. The results will help you decide how hot, cold, wet, or windy it might be!

Date:

Astronomy

Feb. 18, 2013 Rise Set
Actual Time 6:32 AM CST 5:46 PM CST
Civil Twilight 6:08 AM CST 6:11 PM CST
Nautical Twilight 5:40 AM CST 6:39 PM CST
Astronomical Twilight 5:12 AM CST 7:07 PM CST
Moon 11:44 AM CST (2/18) 1:01 AM CST (2/18)
Length of Visible Light 12h 02m
Length of Day
11h 13m
First Quarter, 58% of the Moon is Illuminated
Feb 18
First Quarter
Feb 25
Full
Mar 4
Last Quarter
Mar 11
New
Mar 19
First Quarter

Hourly Weather History & Observations

Time (CST) Temp. Dew Point Humidity Pressure Visibility Wind Dir Wind Speed Gust Speed Precip Events Conditions
12:58 AM 53.8 °F 39.4 °F 58% 30.27 in 10.0 mi South 9.2 mph - N/A   Clear
1:58 AM 54.1 °F 42.8 °F 66% 30.26 in 10.0 mi South 11.5 mph - N/A   Clear
2:58 AM 54.5 °F 41.9 °F 62% 30.24 in 10.0 mi South 11.5 mph - N/A   Clear
3:58 AM 54.9 °F 43.3 °F 65% 30.24 in 10.0 mi South 10.4 mph - N/A   Clear
4:58 AM 55.2 °F 45.3 °F 69% 30.25 in 10.0 mi South 10.4 mph - N/A   Clear
5:58 AM 55.8 °F 45.9 °F 69% 30.24 in 10.0 mi South 10.4 mph - N/A   Clear
6:58 AM 56.7 °F 45.9 °F 67% 30.25 in 10.0 mi South 12.7 mph - N/A   Clear
7:58 AM 59.5 °F 46.4 °F 62% 30.25 in 10.0 mi SSE 10.4 mph - N/A   Clear
8:58 AM 61.5 °F 47.7 °F 60% 30.26 in 10.0 mi SSE 12.7 mph - N/A   Scattered Clouds
9:58 AM 63.1 °F 47.8 °F 57% 30.25 in 10.0 mi SSE 15.0 mph 23.0 mph N/A   Clear
10:58 AM 64.2 °F 48.0 °F 56% 30.26 in 10.0 mi SSE 12.7 mph 23.0 mph N/A   Partly Cloudy
11:58 AM 62.6 °F 48.2 °F 59% 30.24 in 10.0 mi SSE 15.0 mph 23.0 mph N/A   Overcast
12:58 PM 61.2 °F 47.8 °F 62% 30.20 in 10.0 mi SE 13.8 mph 24.2 mph N/A   Overcast
1:58 PM 61.3 °F 47.7 °F 61% 30.16 in 10.0 mi SE 15.0 mph 20.7 mph N/A   Overcast
2:58 PM 61.9 °F 48.2 °F 61% 30.15 in 10.0 mi SE 17.3 mph 25.3 mph N/A   Overcast
3:58 PM 61.0 °F 49.3 °F 65% 30.13 in 10.0 mi SE 13.8 mph 20.7 mph N/A   Overcast
3:59 PM 60.8 °F 50.0 °F 68% 30.12 in 10.0 mi SE 12.7 mph 20.7 mph N/A Rain Light Rain
4:16 PM 59.0 °F 51.8 °F 77% 30.12 in 10.0 mi SE 15.0 mph 19.6 mph N/A   Overcast
4:58 PM 59.2 °F 52.3 °F 78% 30.11 in 10.0 mi SE 16.1 mph 21.9 mph 0.00 in   Mostly Cloudy
5:58 PM 60.4 °F 52.3 °F 75% 30.10 in 10.0 mi SE 13.8 mph 21.9 mph N/A   Overcast
6:58 PM 60.6 °F 53.4 °F 77% 30.09 in 10.0 mi SE 13.8 mph 21.9 mph N/A   Overcast
7:58 PM 61.2 °F 54.7 °F 79% 30.09 in 10.0 mi SE 12.7 mph - N/A   Overcast
8:18 PM 60.8 °F 55.4 °F 82% 30.08 in 10.0 mi SSE 13.8 mph 17.3 mph N/A   Overcast
8:43 PM 60.8 °F 55.4 °F 82% 30.07 in 10.0 mi SSE 16.1 mph 20.7 mph N/A   Overcast
8:48 PM 60.8 °F 55.4 °F 82% 30.07 in 10.0 mi SSE 17.3 mph - N/A   Overcast
8:58 PM 61.5 °F 55.2 °F 80% 30.08 in 10.0 mi SSE 13.8 mph 19.6 mph N/A   Overcast
9:58 PM 61.5 °F 56.1 °F 82% 30.06 in 10.0 mi SSE 15.0 mph 20.7 mph N/A   Overcast
10:43 PM 62.6 °F 57.2 °F 82% 30.04 in 10.0 mi SSE 11.5 mph 21.9 mph N/A   Overcast
10:58 PM 62.2 °F 56.8 °F 82% 30.04 in 10.0 mi South 12.7 mph 21.9 mph N/A   Overcast
11:48 PM 62.6 °F 57.2 °F 82% 30.01 in 10.0 mi South 15.0 mph 21.9 mph N/A   Overcast
11:58 PM 62.4 °F 58.1 °F 86% 30.03 in 10.0 mi South 15.0 mph - N/A   Overcast